Flag for United Kingdom Weather past 2 weeks in Market Harborough, England, United Kingdom

Now
65 °F

Mild.


Feels Like: 65 °F
Forecast: 55 / 72 °F
Wind: 5 mph from Southwest

Location: Church Lawford

Current Time: Jul 31, 2014 at 9:04:08 PM

Latest Report: Jul 31, 2014 at 8:00 PM


Visibility: 13 mi

Pressure: 29.86 "Hg

Humidity: 92%

Dew point: 62 °F

Location of Market HarboroughLocation

Historic Weather in Market Harborough — Graph

°F

Market Harborough temperature yesterday

Maximum temperature yesterday: 74 °F (at 4:00 PM)
Minimum temperature yesterday: 55 °F (at 2:00 AM)
Average temperature yesterday: 64 °F

Past Weeks' High & Low Weather Summary

 TemperatureHumidityPressure
High82 °F (Jul 18, 5:00 PM)100% (Jul 17, 7:00 AM)30.26 "Hg (Jul 17, 7:00 AM)
Low53 °F (Jul 29, 4:00 AM)37% (Jul 26, 2:00 PM)29.72 "Hg (Jul 19, 7:00 PM)
Average67 °F74%30.02 "Hg
* Reported Jul 16 7:00 PM — Jul 31 7:00 PM, Market Harborough, Weather by CustomWeather, © 2014

Note: Actual official high and low records may vary slightly from our data, if they occured in-between our weather recording intervals... More about our weather records

Advertising

Market Harborough weather history for previous 24 hours

 ConditionsComfort  
Time TempWeatherWind HumidityBarometerVisibility
7:00 PM
Jul 31
64 °FMild.1 mph95%29.87 "Hg11 mi
6:00 PM62 °FLight freezing rain. Cloudy.1 mph95%29.88 "Hg9 mi
5:00 PM60 °FLots of rain. Cloudy.9 mph96%29.90 "Hg5 mi
4:00 PM72 °FMild.8 mph55%29.87 "Hg25 mi
3:00 PM75 °FMild.9 mph48%29.88 "Hg19 mi
2:00 PM72 °FMild.8 mph53%29.89 "Hg19 mi
1:00 PM72 °FMild.8 mph54%29.90 "Hg19 mi
12:00 PM71 °FMild.12 mph55%29.91 "Hg15 mi
10:00 AM69 °FMild.7 mph68%29.93 "Hg11 mi
9:00 AM64 °FMild.8 mph75%29.94 "Hg15 mi
8:00 AM59 °FCool.6 mph85%29.95 "Hg14 mi
7:00 AM57 °FCool.5 mph92%29.95 "Hg9 mi
6:00 AM56 °FCool.3 mph94%29.96 "Hg8 mi
5:00 AM56 °FCool.3 mph92%29.96 "Hg9 mi
4:00 AM55 °FCool.2 mph86%29.97 "Hg19 mi
3:00 AM55 °FCool.2 mph85%29.98 "Hg25 mi
2:00 AM57 °FCool.2 mph81%29.98 "Hg28 mi
1:00 AM58 °FCool.6 mph79%29.98 "Hg19 mi
12:00 AM57 °FCool.2 mph76%29.99 "Hg25 mi
11:00 PM
Jul 30
59 °FCool.3 mph68%29.98 "Hg28 mi
10:00 PM62 °FCool.5 mph64%29.98 "Hg25 mi
9:00 PM67 °FMild.6 mph59%29.97 "Hg14 mi
Weather by CustomWeather, © 2014

See weather overviewHow to use our weather pages